Weather in Tuksa

Russia / Republic of Karelia     61°00′31″N   32°50′47″E
temp.,
°C
wind,
m/s
gust,
m/s
humid.,
%
clouds,
%
prec.,
mm/h
press.,
hPa
HPBL,
m
28 september, tue
tue2800:00+7ene34915 0.0 103382
03:00+6ene229261 0.0 103355
06:00+6ene23918 0.0 103456
09:00+8ene238356 0.0 1034140
12:00+12e23685 0.0 1034469
15:00+13wsw026417 0.0 1034696
18:00+10wnw228031 0.0 103431
21:00+8nw118762 0.0 103511
29 september, wed
wed2900:00+8ne008912 0.0 103610
03:00+7s118740 0.0 103717
06:00+7s128812 0.0 103648
09:00+9ssw128218 0.0 1037105
12:00+11sw32715 0.0 1037489
15:00+10wsw337143 0.0 1036397
18:00+8w12826 0.0 103647
21:00+7nnw00855 0.0 103611
30 september, thu
thu3000:00+7ese11845 0.0 103623
03:00+6ese11865 0.0 103638
06:00+5se22906 0.0 103654
09:00+7sse228441 0.0 1036131
12:00+10ssw227184 0.0 1035386
15:00+10ssw226845 0.0 1034397
18:00+8sse11795 0.0 103317
21:00+7se34855 0.0 103369
1 october, fri
fri100:00+7sse34903 0.0 103286
03:00+6sse35905 0.0 1032113
06:00+6sse469053 0.0 1031163
09:00+7s488353 0.0 1030303
12:00+10s57708 0.0 1030482
15:00+11ssw586940 0.0 1029473
18:00+10ssw3778100 0.0 1028202
21:00+10ssw3884100 0.0 1028349
2 october, sat
sat200:00+9ssw4786100 0.0 1028474
03:00+9ssw4786100 0.1 1027410
06:00+8s47935 0.0 1026282
09:00+9s598825 0.0 1026408
12:00+10s69795 0.0 1025469
15:00+12s610695 0.0 1024535
18:00+11sse511745 0.0 1023400
21:00+9sse614775 0.0 1023448